Regional Weather Roundup
Issued by NWS

Home | Current Version | Previous Version | Text Only | Print | Product List | Glossary Off
Versions: 1 2 3 4 5 6 7 8 9 10 11 12 13 14 15 16 17 18 19 20 21 22 23 24 25 26 27 28 29 30 31 32 33 34 35 36 37 38 39 40 41 42 43 44 45 46 47 48 49 50

000
ASUS43 KLMK 271002
RWRKY
KENTUCKY REGIONAL WEATHER ROUNDUP
NATIONAL WEATHER SERVICE LOUISVILLE KY
600 AM EDT TUE JUN 27 2017

NOTE "FAIR" INDICATES FEW OR NO CLOUDS BELOW 12,000 FEET
WITH NO SIGNIFICANT WEATHER AND/OR OBSTRUCTIONS TO VISIBILITY.

KYZ001>023-026-027-061>063-070>075-271100-
WESTERN AND SOUTH CENTRAL KENTUCKY

CITY           SKY/WX    TMP DP  RH WIND       PRES   REMARKS
PADUCAH        CLEAR     60  57  89 CALM      30.11R
HENDERSON      CLEAR     52  52 100 CALM      30.14R
OWENSBORO      CLEAR     59  54  83 CALM      30.13R
HOPKINSVILLE   CLOUDY    61  58  89 CALM      30.11S
BOWLING GREEN  PTCLDY    59  57  93 NE3       30.12R
GLASGOW        NOT AVBL
$$

KYZ024-025-028>034-038-045-046-053-271100-
NORTH CENTRAL KENTUCKY

CITY           SKY/WX    TMP DP  RH WIND       PRES   REMARKS
LOUISVILLE/SDF PTCLDY    61  56  83 E3        30.13R
LOUISVILLE/LOU PTCLDY    59  58  96 CALM      30.13R
FORT KNOX      PTCLDY    55  53  92 CALM      30.11R
$$

KYZ035>037-039>044-047>052-055>060-089>105-271100-
NORTHEAST KENTUCKY

CITY           SKY/WX    TMP DP  RH WIND       PRES   REMARKS
LEXINGTON      CLOUDY    57  53  86 N5        30.13R
COVINGTON      CLEAR     52  49  89 SW5       30.12R
FRANKFORT      PTCLDY    57  53  86 CALM      30.12R
$$

KYZ054-064>069-076>088-106>120-271100-
SOUTHEAST KENTUCKY

CITY           SKY/WX    TMP DP  RH WIND       PRES   REMARKS
JACKSON        CLEAR     57  52  83 CALM      30.12R
LONDON         CLOUDY    56  53  90 CALM      30.13R
SOMERSET       MOCLDY    54  54 100 CALM      30.15R
MIDDLESBORO    MOCLDY    54  54 100 CALM      30.14R
MONTICELLO     MOSUNNY   53  53 100 CALM      30.14R
$$





USA.gov is the U.S. government's official web portal to all federal, state and local government web resources and services.